{"data":{"norad_id":63374,"epoch":"2026-09-20T10:33:33.892704Z","epoch_age_seconds":164012,"freshness":"FRESH","line1":"1 63374U 25063M   26263.43997561  .00019811  00000+0  59623-3 0  9999","line2":"2 63374  53.1573 221.6900 0000985  71.5744 288.5366 15.34383504 84667","mean_motion":15.34383504,"eccentricity":9.85e-5,"inclination_deg":53.1573,"raan_deg":221.69,"arg_perigee_deg":71.5744,"mean_anomaly_deg":288.5366,"bstar":0.00059623,"rev_number":8466,"period_min":93.848767028976,"perigee_km":462.07844264162,"apogee_km":463.42609782786,"semimajor_km":6840.8892702347,"source":"CELESTRAK","updated_at":"2026-09-21T09:00:34.974336Z"}}